Location: Drescherh�tte
(48.5333°N, 15.4833°E)
Time: 05:33:17
(UTC+00:00)

Daily predictions for brighter satellites

Satellite Brightness Start Highest point End
(mag) Time Altitude Azimuth Time Altitude Azimuth Time Altitude Azimuth
ATLAS 2AS CENTAUR R/B 3.8 02:06:12 42° NNE 02:06:12 42° NNE 02:13:02 10° E
Cosmos 2082 Rocket 4.1 02:16:34 25° NE 02:16:34 25° NE 02:18:59 10° NE
ATLAS 5 CENTAUR R/B 4.3 02:21:53 79° W 02:22:29 82° SW 02:54:51 10° SE
SJ 16-02 4.0 02:32:57 16° NE 02:32:57 16° NE 02:34:09 10° NE
USA 234 3.9 02:31:32 10° ENE 02:36:37 45° NNE 02:36:37 45° NNE
Cosmos 2360 Rocket 4.2 02:38:04 19° NNE 02:40:00 22° NE 02:44:22 10° E
SL-16 R/B 3.2 02:44:16 42° NE 02:44:28 42° NE 02:49:49 10° ESE
CZ-4C R/B 4.0 02:52:33 24° N 02:52:33 24° N 02:56:39 10° NE
Cosmos 2322 Rocket 3.2 02:51:14 39° NNE 02:52:07 41° NE 02:57:28 10° ESE
Lacrosse 5 3.1 03:00:41 37° NE 03:00:41 37° NE 03:03:47 10° NE
COSMOS 2455 2.9 03:06:43 71° NNE 03:07:00 72° NE 03:13:00 10° SE
MSX 3.8 03:03:09 10° NNE 03:08:56 78° ESE 03:09:18 74° SE
CZ-2C R/B 3.0 03:09:05 10° NNE 03:13:52 54° E 03:14:54 44° SE
IDEFIX/ARIANE 42P 4.2 03:08:44 10° N 03:10:36 23° N 03:10:36 23° N
NOSS 3-4 (A) 4.1 03:15:02 40° NNW 03:17:39 63° NE 03:25:10 10° SE
NOSS 3-4 (C) 4.1 03:15:07 39° NNW 03:17:45 63° NE 03:25:15 10° SE
ATLAS CENTAUR R/B 3.6 03:19:17 12° S 03:23:00 29° ESE 03:27:08 10° ENE
Lacrosse 5 rocket 3.3 03:24:54 21° NE 03:24:54 21° NE 03:26:45 10° ENE
ASTEX 1 3.6 03:20:08 10° S 03:30:08 10° N 03:24:24 66° SSE
NOSS 3-3 (A) 3.9 03:26:37 61° SW 03:27:48 89° SE 03:34:35 10° NE
NOSS 3-3 (C) 3.9 03:26:41 60° SW 03:27:56 88° SE 03:34:42 10° NE
Cosmos 2219 Rocket 4.4 03:25:58 10° N 03:30:06 20° NE 03:34:13 10° E
Cosmos 2333 Rocket 4.3 03:25:57 10° N 03:30:20 21° NE 03:34:40 10° E
Cosmos 990 Rocket 3.8 03:31:01 82° NNW 03:31:01 82° NNW 03:36:06 10° NNE
Cosmos 1892 4.3 03:33:33 28° NNE 03:33:33 28° NNE 03:35:32 10° NNE
Meteor 2-20 Rocket 4.3 03:31:15 10° N 03:37:28 87° W 03:43:38 10° S
BREEZE-M DEB (TANK) 3.9 03:40:23 33° SE 03:40:23 33° SE 03:42:00 10° ESE
Meteor 1-31 Rocket 3.7 03:37:47 10° NNE 03:40:23 40° NNE 03:40:23 40° NNE
CZ-4B R/B 4.1 03:41:16 10° NNE 03:45:48 82° ESE 03:50:16 10° SSW
STARLINK-48 3.7 03:46:27 66° ENE 03:46:27 66° ENE 03:49:52 10° ENE
Cosmos 1825 4.2 03:42:56 10° SSE 03:46:13 29° E 03:49:32 10° NNE
Cosmos 1484 Rocket 4.0 03:43:11 10° NNE 03:47:03 43° E 03:50:53 10° S
Meteor 2-20 4.4 03:41:25 10° NNW 03:47:26 58° W 03:53:26 10° S
SL-4 R/B 2.3 03:48:12 71° WSW 03:48:32 75° SSW 03:53:22 10° ESE
Cosmos 2151 3.1 03:44:22 10° S 03:48:39 75° E 03:52:59 10° NNE
In-Cosmos 22 Rocket 4.0 03:47:35 10° SSW 03:52:59 82° W 03:58:34 10° N
H-2A R/B 3.4 03:49:43 10° N 03:52:43 38° NNW 03:52:43 38° NNW
Abrixas rocket 3.9 03:54:33 25° SSE 03:54:33 25° SSE 03:57:01 10° E
Cosmos 839 Rocket 4.3 03:54:08 42° W 03:55:30 49° NW 04:01:31 10° NNE
Cosmos 2100 Rocket 3.9 03:49:51 10° S 03:56:02 88° W 04:02:14 10° N
ATLAS 2AS CENTAUR R/B 2.8 03:53:41 30° NW 03:57:44 73° SW 04:04:46 10° SSE
Cosmos 2082 Rocket 3.1 03:58:26 31° NW 03:58:26 31° NW 04:02:54 10° NNE
STARLINK-45 4.3 03:58:53 34° SSW 04:00:15 50° SE 04:04:17 10° ENE
Gbstr 26 Del rocket 2.5 04:00:32 71° NNW 04:00:32 71° NNW 04:04:15 10° ENE
STARLINK-76 4.4 04:01:30 30° SSW 04:03:08 48° SE 04:07:09 10° ENE
STARLINK 4.4 04:03:08 30° SSW 04:04:49 49° SE 04:08:50 10° ENE
COBE Rocket 3.9 03:59:44 10° S 04:04:49 64° W 04:09:21 13° NNW
STARLINK-32 4.3 04:04:41 29° SSW 04:06:27 51° SE 04:10:29 10° ENE
Cosmos 1766 Rocket 3.4 04:02:10 10° SSW 04:06:29 79° W 04:10:53 10° N
STARLINK-40 4.3 04:06:18 29° SSW 04:08:07 52° SE 04:12:09 10° ENE
Cosmos 1833 Rocket 4.1 04:09:16 21° NNW 04:09:16 21° NNW 04:12:45 10° N
SJ 16-02 2.2 04:10:01 32° NNW 04:10:01 32° NNW 04:13:03 10° N
STARLINK-44 4.2 04:07:52 28° SSW 04:09:44 53° SE 04:13:46 10° ENE
Cosmos 1437 4.4 04:07:31 10° SSE 04:10:19 33° E 04:13:08 10° NNE
CZ-4B R/B 3.5 04:07:26 10° N 04:09:43 34° NNW 04:09:43 34° NNW
Cosmos 2237 4.4 04:06:39 16° NNW 04:11:23 75° ENE 04:17:05 10° SE
STARLINK-36 4.2 04:09:31 28° SSW 04:11:26 55° SSE 04:15:30 10° ENE
Cosmos 1898 Rocket 3.9 04:11:59 38° WNW 04:12:37 40° WNW 04:17:37 10° NNE
Cosmos 1802 Rocket 4.0 04:08:18 10° S 04:14:45 84° W 04:21:12 10° N
Okean 3 Rocket 3.7 04:10:32 10° SSW 04:14:55 51° WNW 04:19:19 10° N
COSMO-SKYMED 1 2.4 04:13:26 10° S 04:17:46 73° WSW 04:21:53 11° NNW
STARLINK-35 4.0 04:15:51 26° SW 04:18:01 60° SSE 04:22:06 10° ENE
Cosmos 1937 Rocket 3.7 04:16:37 31° WSW 04:18:38 46° WNW 04:23:35 10° NNE
STARLINK-51 4.0 04:17:30 25° SW 04:19:43 62° SSE 04:23:49 10° ENE
USA 234 3.9 04:14:01 10° ENE 04:20:06 43° N 04:23:58 22° NW
STARLINK-60 3.9 04:20:13 36° NNW 04:20:41 38° N 04:23:52 10° ENE
STARLINK-30 3.9 04:19:09 25° SW 04:21:25 63° SSE 04:25:32 10° ENE
COSMOS 2428 4.0 04:17:21 10° NNW 04:22:41 39° NE 04:28:01 10° ESE
STARLINK-33 3.9 04:20:42 24° SW 04:23:02 65° SSE 04:27:09 10° ENE
Cosmos 1408 2.4 04:19:28 10° SSW 04:23:08 73° W 04:26:49 10° N
Meteor PRIRODA 3.6 04:20:05 10° N 04:23:42 56° WNW 04:27:15 10° SSW
STARLINK-61 3.5 04:22:55 34° WSW 04:24:35 88° SSE 04:28:39 10° ENE
STARLINK-50 3.9 04:22:16 24° SW 04:24:40 66° SSE 04:28:48 10° ENE
Cosmos 2360 Rocket 2.1 04:19:52 14° NNW 04:24:46 86° WSW 04:30:27 10° SSE
STARLINK-26 3.7 04:23:29 27° SW 04:25:38 74° SSE 04:29:44 10° ENE
Cosmos 2173 Rocket 4.0 04:20:47 10° SSW 04:26:55 58° WNW 04:33:01 10° N
STARLINK-56 3.8 04:25:30 22° SW 04:28:01 69° SSE 04:32:09 10° ENE
Cosmos 2237 Rocket 4.2 04:23:52 10° N 04:28:13 22° NE 04:32:33 10° E
SL-16 R/B 2.7 04:26:12 27° WNW 04:28:32 38° WSW 04:33:42 10° S
Starlink (trailer) 3.8 04:27:17 22° SW 04:29:52 71° SSE 04:34:01 10° ENE
STARLINK-38 3.8 04:28:42 21° SW 04:31:20 73° SSE 04:35:28 10° ENE
STARLINK-52 4.0 04:30:54 31° NW 04:31:54 38° N 04:35:14 10° ENE
PSLV R/B 3.8 04:28:09 10° N 04:31:59 58° WNW 04:35:52 10° SSW
Cosmos 2061 Rocket 3.9 04:26:10 10° SSW 04:32:23 71° WNW 04:38:36 10° N
STARLINK-65 3.7 04:30:19 21° SW 04:33:01 74° SSE 04:37:09 10° ENE
USA 116 3.3 04:31:07 10° S 04:34:26 72° W 04:38:07 10° NNW
SJ-12 3.8 04:31:23 10° N 04:35:33 77° WNW 04:39:41 10° SSW
Cosmos 2322 Rocket 2.7 04:33:06 22° NW 04:36:09 38° WSW 04:41:21 10° S
Cosmos 1125 Rocket 4.0 04:31:58 10° S 04:37:11 65° ESE 04:42:25 10° NNE
STARLINK-69 3.6 04:35:08 19° WSW 04:37:59 80° SSE 04:42:09 10° ENE
Exosat Rocket 4.5 04:34:12 10° NNW 04:39:32 59° ENE 04:46:31 10° SE
STARLINK-66 3.6 04:36:39 19° WSW 04:39:35 80° SSE 04:43:44 10° ENE
Cosmos 2150 Rocket 4.0 04:34:11 10° SSW 04:39:37 71° WNW 04:45:03 10° NNE
Cosmos 2233 Rocket 4.4 04:34:26 10° S 04:40:40 70° E 04:46:58 10° NNE
STARLINK-41 3.6 04:38:15 18° WSW 04:41:16 82° SSE 04:45:26 10° ENE
ALOS 2.2 04:36:40 10° NNE 04:41:23 88° WNW 04:46:04 10° SSW
CZ-4C R/B 4.2 04:37:44 13° NW 04:41:56 23° N 04:47:29 10° ENE
STARLINK-46 2.6 04:41:04 36° WNW 04:42:07 85° NNE 04:45:06 10° ESE
Lacrosse 5 2.8 04:39:53 22° WNW 04:42:22 33° N 04:46:58 10° NE
STARLINK-64 3.6 04:39:55 18° WSW 04:42:57 84° SSE 04:47:07 10° ENE
Cosmos 1238 Rocket 4.2 04:36:41 10° S 04:43:11 74° E 04:48:58 10° NNE
STARLINK-70 3.6 04:41:27 17° WSW 04:44:34 85° SSE 04:48:44 10° ENE
STARLINK-29 4.0 04:43:24 25° NW 04:44:58 40° N 04:48:17 10° E
Cosmos 2346 Rocket 4.4 04:39:06 10° NNW 04:45:06 62° W 04:51:02 10° S
Cosmos 1864 Rocket 4.4 04:39:05 10° SSW 04:45:13 74° W 04:51:27 10° N
RESURS DK-1 4.4 04:41:58 10° N 04:45:25 25° NE 04:48:51 10° ESE
STARLINK-68 3.6 04:43:15 17° WSW 04:46:23 89° SSE 04:50:33 10° ENE
STARLINK-58 3.6 04:44:29 16° WSW 04:47:43 89° SSE 04:51:53 10° ENE
NOAA 6 4.1 04:43:17 10° NNE 04:48:27 82° ESE 04:53:34 10° SSW
BREEZE-M DEB (TANK) 1.1 04:48:06 32° WNW 04:48:58 70° N 04:50:58 10° E
STARLINK-62 3.6 04:46:24 16° WSW 04:49:41 88° NNW 04:53:51 10° ENE
STARLINK-80 3.9 04:48:36 24° WNW 04:50:36 47° N 04:54:20 10° ENE
STARLINK-63 3.6 04:47:53 15° WSW 04:51:16 88° NNW 04:55:26 10° ENE
CZ-2C R/B 3.5 04:48:00 10° N 04:51:44 23° WNW 04:54:14 15° W
Okean O Rocket 1.5 04:47:32 10° NNE 04:51:55 84° WNW 04:56:16 10° SSW
Cosmos 2228 Rocket 3.1 04:47:23 10° NNW 04:51:59 74° W 04:56:33 10° S
MOS 1-B 4.3 04:46:30 10° N 04:52:14 62° WNW 04:57:56 10° SSW
COSMOS 2455 3.9 04:49:56 18° WNW 04:52:24 24° WSW 04:57:02 10° SSW
IDEFIX/ARIANE 42P 4.4 04:50:30 10° NNW 04:51:24 12° NW 04:51:24 12° NW
STARLINK 3.6 04:49:07 14° WSW 04:52:41 89° SSE 04:56:51 10° ENE
Cosmos 1151 Rocket 3.7 04:49:51 10° NNW 04:53:44 31° W 04:57:34 10° SSW
FALCON 9 DEB 3.9 04:51:55 21° NW 04:53:49 42° N 04:57:07 10° E
Meteor 2-3 Rocket 3.9 04:48:37 10° S 04:54:22 82° E 05:00:13 10° NNE
STARLINK-72 3.6 04:50:56 14° WSW 04:54:30 87° NNW 04:58:41 10° ENE
Cosmos 1933 3.5 04:51:45 10° NNW 04:55:38 47° W 04:59:29 10° SSW
METEOR-M 4.1 04:50:22 10° N 04:55:42 72° WNW 05:01:01 10° SSW
Cosmos 372 Rocket 4.1 04:51:13 10° SW 04:56:14 53° WNW 05:01:16 10° NNE
STARLINK-59 3.6 04:54:18 13° WSW 04:57:56 82° NNW 05:02:06 10° ENE
FENGYUN 3A 3.6 04:53:55 10° N 04:59:20 71° WNW 05:04:42 10° SSW
STARLINK-57 3.6 04:55:53 13° WSW 04:59:36 81° NNW 05:03:46 10° ENE
Cosmos 2333 4.3 04:54:08 10° NNW 04:59:58 89° WSW 05:05:46 10° SSE
ATLAS CENTAUR R/B 1.9 04:57:00 10° WSW 05:01:47 52° NW 05:06:25 10° NNE
STARLINK-28 3.6 04:59:05 12° WSW 05:02:55 78° NNW 05:07:05 10° ENE
Lacrosse 5 rocket 1.1 05:00:34 16° NW 05:03:19 73° NE 05:06:54 10° ESE
STARLINK-75 3.6 05:00:36 12° WSW 05:04:21 73° NNW 05:08:30 10° ENE
STARLINK-53 3.6 05:00:29 12° WSW 05:04:23 77° NNW 05:08:34 10° ENE
Cosmos 1315 Rocket 3.5 05:01:15 10° N 05:05:14 57° ENE 05:09:14 10° SSE
Cosmos 1515 Rocket 4.1 05:01:30 10° NNW 05:05:26 35° W 05:09:22 10° SSW
STARLINK-54 3.6 05:02:16 11° WSW 05:06:13 76° NNW 05:10:23 10° ENE
Cosmos 2322 3.7 05:01:05 10° NNW 05:06:46 70° WSW 05:12:22 10° SSE
Cosmos 1606 3.1 05:04:11 10° NNW 05:07:45 39° W 05:11:19 10° SSW
Cosmos 1892 4.5 05:08:41 13° NW 05:08:41 13° NW 05:09:57 10° NNW
STARLINK-43 4.1 05:05:21 16° WNW 05:07:58 40° N 05:11:31 10° ENE
NOSS 3-4 (A) 4.4 05:02:31 12° NW 05:08:26 39° WSW 05:15:25 10° S
COSMOS 2487 3.3 05:05:27 10° WSW 05:08:30 28° WNW 05:11:34 10° N
NOSS 3-4 (C) 4.4 05:02:36 12° NW 05:08:33 39° WSW 05:15:31 10° S
CZ-4B R/B 3.1 05:05:07 10° N 05:10:30 70° WNW 05:15:57 10° SSW
STARLINK-37 3.6 05:06:48 10° WSW 05:10:57 72° NNW 05:15:08 10° ENE
STARLINK-55 3.6 05:07:04 10° WSW 05:11:12 73° NNW 05:15:21 10° ENE
Cosmos 1805 Rocket 3.9 05:07:13 10° S 05:11:31 69° E 05:15:50 10° NNE
Cosmos 1743 Rocket 3.7 05:07:56 10° SSW 05:12:08 48° WNW 05:16:21 10° N
STARLINK-34 3.6 05:08:47 10° WSW 05:12:54 71° NNW 05:17:04 10° ENE
STARLINK-24 3.6 05:09:28 10° WSW 05:13:37 71° NNW 05:17:46 10° ENE
STARLINK-81 3.6 05:10:14 10° WSW 05:14:23 73° NNW 05:18:32 10° ENE
Cosmos 2219 Rocket 2.3 05:09:14 10° NNW 05:14:56 84° ENE 05:20:37 10° SSE
Cosmos 2333 Rocket 2.3 05:09:38 10° NNW 05:15:28 87° ENE 05:21:14 10° SSE
STARLINK-77 3.6 05:13:33 10° WSW 05:17:42 70° NNW 05:21:51 10° ENE
Cosmos 1725 Rocket 4.3 05:12:28 10° SW 05:18:26 45° WNW 05:24:29 10° N
STARLINK-25 3.6 05:15:20 10° WSW 05:19:28 69° NNW 05:23:37 10° ENE
Cosmos 1484 Rocket 4.1 05:18:13 10° NNW 05:21:11 20° WNW 05:24:09 10° WSW
STARLINK-71 3.7 05:17:12 10° WSW 05:21:19 65° NNW 05:25:27 10° ENE
Cosmos 1825 3.3 05:18:43 10° SW 05:21:45 23° WNW 05:24:49 10° NNW
STARLINK-79 3.6 05:18:31 10° WSW 05:22:39 67° NNW 05:26:48 10° ENE
STARLINK-78 3.7 05:20:16 10° WSW 05:24:24 66° NNW 05:28:32 10° ENE
STARLINK-48 4.0 05:21:14 11° W 05:24:51 43° N 05:28:36 10° ENE
Cosmos 1782 2.8 05:21:29 10° NNW 05:25:27 63° W 05:29:22 10° S
STARLINK-49 3.7 05:23:35 10° WSW 05:27:42 64° NNW 05:31:50 10° ENE
SL-4 R/B 3.9 05:24:02 10° W 05:27:47 22° SW 05:31:28 10° S
STARLINK-27 3.7 05:25:16 10° W 05:29:23 63° NNW 05:33:31 10° ENE
IRS-1C Rocket 4.3 05:24:20 10° NNE 05:29:39 83° ESE 05:34:55 10° SSW
Abrixas rocket 2.1 05:27:02 10° WSW 05:30:02 76° S 05:33:04 10° E
STARLINK-74 3.7 05:26:56 10° W 05:31:03 62° NNW 05:35:10 10° ENE
SAR-Lupe-2 3.8 05:28:14 10° SSE 05:31:47 73° ENE 05:35:23 10° N
STARLINK-39 3.7 05:28:37 10° W 05:32:44 61° NNW 05:36:51 10° ENE
Helios 1A Rocket 3.6 05:29:27 10° N 05:33:06 31° WNW 05:36:43 10° SW
STARLINK 3.7 05:30:17 10° W 05:34:23 61° NNW 05:38:31 10° ENE
CZ-2C R/B 3.8 05:30:28 10° SSE 05:35:00 89° SW 05:39:41 10° NNW
STARLINK-42 3.8 05:30:59 10° W 05:35:05 59° NNW 05:39:12 10° ENE
Cosmos 1500 Rocket 4.3 05:31:22 10° SW 05:35:24 33° WNW 05:39:27 10° N
Meteor 2-6 Rocket 4.2 05:30:27 10° NNW 05:35:54 85° W 05:41:25 10° S
STARLINK-21 3.8 05:33:31 10° W 05:37:38 59° NNW 05:41:45 10° ENE
Cosmos 1633 Rocket 3.8 05:34:02 10° S 05:38:17 57° E 05:42:35 10° NNE
STARLINK-45 3.8 05:35:47 10° W 05:39:52 56° NNW 05:43:57 10° ENE
Cosmos 1400 Rocket 4.0 05:36:38 10° NW 05:39:58 24° W 05:43:14 10° SW
